Location: Newark
(50.9000°N, 14.8333°E)
Time: 09:31:40
(UTC+00:00)

ISS - Visible Passes

Search period start: 27 October 2020 00:00
Search period end: 06 November 2020 00:00
Orbit: 417 x 420 km, 51.6° (Epoch: 27 October)

Date Brightness Start Highest point End Pass type
(mag) Time Alt. Az. Time Alt. Az. Time Alt. Az.
27 Oct -1.8 03:21:42 23° SSE 03:21:51 23° SE 03:24:35 10° E visible
27 Oct -3.6 04:54:57 10° WSW 04:58:19 78° SSE 05:01:41 10° ENE visible
28 Oct -0.4 02:36:08 11° ESE 02:36:08 11° ESE 02:36:28 10° E visible
28 Oct -3.4 04:09:06 29° SW 04:10:35 61° SSE 04:13:54 10° ENE visible
29 Oct -2.6 03:23:27 40° ESE 03:23:27 40° ESE 03:26:07 10° E visible
29 Oct -3.8 04:56:24 11° W 04:59:34 80° N 05:02:57 10° E visible
30 Oct -0.5 02:37:44 13° E 02:37:44 13° E 02:38:15 10° E visible
30 Oct -3.8 04:10:41 40° W 04:11:47 89° NNW 04:15:10 10° E visible
31 Oct -2.7 03:24:55 45° E 03:24:55 45° E 03:27:23 10° ENE visible
31 Oct -3.7 04:57:52 13° W 05:00:52 77° N 05:04:14 10° E visible
01 Nov -0.4 02:39:08 13° E 02:39:08 13° E 02:39:36 10° ENE visible
01 Nov -3.8 04:12:04 42° WNW 04:13:04 76° N 04:16:27 10° E visible
02 Nov -2.6 03:26:15 42° ENE 03:26:15 42° ENE 03:28:37 10° E visible
02 Nov -3.8 04:59:12 13° WNW 05:02:07 85° SSW 05:05:29 10° ESE visible
03 Nov -0.4 02:40:26 13° E 02:40:26 13° E 02:40:50 10° E visible
03 Nov -3.8 04:13:23 44° WNW 04:14:19 83° N 04:17:42 10° E visible
04 Nov -2.5 03:27:34 41° E 03:27:34 41° E 03:29:53 10° E visible
04 Nov -3.4 05:00:31 14° W 05:03:16 53° SSW 05:06:34 10° SE visible
05 Nov -0.3 02:41:46 12° E 02:41:46 12° E 02:42:04 10° E visible
05 Nov -3.8 04:14:43 47° W 04:15:32 70° SSW 04:18:52 10° ESE visible
